Regional Weather Roundup
Issued by NWS Mobile, AL

Home | Current Version | Previous Version | Text Only | Print | Product List | Glossary On
Versions: 1 2 3 4 5 6 7 8 9 10 11 12 13 14 15 16 17 18 19 20 21 22 23 24 25 26 27 28 29 30 31 32 33 34 35 36 37 38 39 40 41 42 43 44 45 46 47 48 49 50
000
ASUS44 KMOB 280110
RWRMOB
REGIONAL WEATHER ROUNDUP
NATIONAL WEATHER SERVICE MOBILE AL
800 PM CDT WED AUG 27 2014

NOTE: "FAIR" INDICATES FEW OR NO CLOUDS BELOW 12,000 FEET WITH NO
      SIGNIFICANT WEATHER AND/OR OBSTRUCTIONS TO VISIBILITY.

  * THESE STATIONS ARE PART OF THE UNIVERSITY OF SOUTH ALABAMA
    MESONET AND ARE NOT UNDER NWS OR FAA QUALITY CONTROL.

ALZ061>064-280200-
COASTAL ALABAMA

CITY           SKY/WX    TMP DP  RH WIND       PRES   REMARKS
MOBILE REG APT LGT RAIN  77  75  93 SW5       30.00R
BROOKLEY FIELD MOCLDY    82  73  74 SW3       30.00R
USA CAMPUS*      N/A     79  73  83 CALM      29.99R
DOG RIVER*       N/A     82  73  74 SW3       29.99R


CITY           SKY/WX    TMP DP  RH WIND       PRES   REMARKS
MOUNT VERNON*    N/A     79  73  83 CALM      29.98R
SARALAND*      NOT AVBL
BAY MINETTE*   NOT AVBL
LOXLEY*          N/A     79  72  78 SW3       29.99S
ROBERTSDALE*     N/A     79  72  78 CALM      29.99R
FAIRHOPE*        N/A     79  73  83 S3        29.98R
ELBERTA*         N/A     81  68  65 CALM      29.99R
FOLEY*         NOT AVBL
GRAND BAY*       N/A     82  73  74 S2        29.97R
DAUPHIN ISLND* NOT AVBL
BON SCOUR NWR* NOT AVBL
GULF SHORES    PTCLDY    81  71  72 S3        29.99R

$$

ALZ051>060-280200-
INTERIOR SOUTHWEST AND SOUTH CENTRAL ALABAMA

CITY           SKY/WX    TMP DP  RH WIND       PRES   REMARKS
GREENVILLE     PTCLDY    79  66  64 CALM      30.00S
EVERGREEN      PTCLDY    79  68  69 CALM      29.99R
CASTLEBERRY*   NOT AVBL
ATMORE*          N/A     81  72  74 SW6       29.99S
DIXIE*         NOT AVBL
ANDALUSIA/OPP  CLEAR     85  63  47 NE3       29.99S
ANDALUSIA*     NOT AVBL
FLORALA APT    CLEAR     80  65  59 N5        30.01R
FLORALA*         N/A     75  64  69 CALM      29.96S

$$

FLZ001>006-280200-
WESTERN FLORIDA PANHANDLE

CITY           SKY/WX    TMP DP  RH WIND       PRES   REMARKS
PENSACOLA      MOCLDY    81  69  67 SW7       29.98R
NAS PENSACOLA  MOCLDY    81  71  71 SW3       29.98R
MILTON         MOCLDY    80  69  69 SW6       29.98S
WHTNG S FIELD  MOCLDY    83  70  64 S3        29.99R


CITY           SKY/WX    TMP DP  RH WIND       PRES   REMARKS
WALNUT HILL*   NOT AVBL
JAY*           NOT AVBL
DUKE FIELD     MOCLDY    83  71  67 SW6       29.98S
CRESTVIEW      PTCLDY    82  70  66 SW3       29.99S
VALPARAISO     MOCLDY    83  70  64 W5        29.98R
DESTIN         PTCLDY    86  70  58 VRB3      29.98R

$$

MSZ076-079-280200-
INTERIOR SOUTHEAST MISSISSIPPI

CITY           SKY/WX    TMP DP  RH WIND       PRES   REMARKS
LEAKESVILLE*     N/A     82  68  61 VRB2        N/A
AGRICOLA*      NOT AVBL

$$

MARINE OBSERVATIONS

STATION/POSITION TIME  TEMP    WIND        PRES    WAVE
                       AIR SEA DIR/SP/G            HT/PER
                 (UTC) (F)     (DEG/KT/KT) (MB)    (FT/S)
PASCAGOULA       0100   85     170/  9/ 11 1015.2R
PETIT BOIS ISLND 0100   84     170/ 10/ 12 1015.6R
GRAND BAY        0000   85     170/  9     1016.0S
KATRINA CUT      0000   84     160/ 11     1015.2S
CEDAR POINT      0000   84     160/ 11     1015.2S
E DAUPHIN ISLAND 0100   84     160/ 10/ 11 1015.4R
MIDDLE BAY LIGHT 0000   84     170/ 10     1014.9S
USCG MOBILE BAY  0100   84 86  220/  3/  5 1014.5R
STATE DOCKS      0100   85 85              1015.3R
MEAHER PARK      0000   83     140/  3     1014.9S
WEEKS BAY        0000   84                   N/A
FORT MORGAN      0100   84     180/ 11/ 13 1014.8S
12 S ORANGE BCH  0100   84 85  180/  8/ 10 1015.1R   3/ 6
PENSACOLA BAY    0100   86 86  240/  2/  3 1015.5R
64 S DAUPHIN ISL 0014   85 86  110/ 12/ 12 1015.0R

$$

SELECTED LOCATIONS ACROSS THE REGION

CITY           SKY/WX    TMP DP  RH WIND       PRES   REMARKS
NEW ORLEANS    MOCLDY    84  75  74 SE6       29.98S
GULFPORT       MOCLDY    84  71  65 S5        29.98R
PASCAGOULA AP  MOCLDY    81  73  76 CALM      29.99R
PASCAGOULA*      N/A     82  70  65 CALM      29.98R
HATTIESBURG    MOCLDY    85  71  63 SW3       29.99S
LAUREL         PTCLDY   N/A N/A N/A CALM      30.01S
MERIDIAN       PTCLDY    80  64  58 CALM      29.99S
JACKSON        PTCLDY    80  66  62 CALM      29.98F
MONTGOMERY     CLEAR     78  62  57 E6        30.00S
TROY           CLEAR     75  66  73 CALM      30.01S
KINSTON*       NOT AVBL
GENEVA*          N/A     79  64  61 CALM      29.99R
ASHFORD*       NOT AVBL
DOTHAN         CLEAR     78  62  57 N3        30.02S
PANAMA CITY    PTCLDY    81  71  71 S3        29.97R

$$



USA.gov is the U.S. government's official web portal to all federal, state and local government web resources and services.